[[{"header":{"parameterUnit":"m.s-1","parameterCategory":1,"la1":30.2991,"la2":30.254,"lo1":-89.0895,"lo2":-89.0444,"dy":0.0017,"dx":0.0017,"nx":28,"ny":28,"refTime":"2025-07-08T03:00:00:Z","depth":0,"parameterNumber":2,"parameterNumberName":"U-component_of_WINDS"},"data":[0,0,0,0,0,0,0,0,0,0,0,0,0,0,0,0,0,0,0,0,0,0,0,0,0,0,0,0,0,0,0,0,0,0,0,0,0,0,0,0,0,0,0,0,0,0,0,0,0,0,0,0,0,0,0,0,0,0,3.0736,3.0737,0,3.0812,3.0813,3.0814,3.0757,3.0754,3.0752,3.0749,3.0828,3.0832,3.0836,0,0,0,0,0,0,0,0,0,0,0,0,0,3.0538,3.0542,3.0736,3.0737,3.0738,3.0812,3.0813,3.0814,3.0757,3.0754,3.0751,3.0748,3.0826,3.0832,3.0837,0,0,0,0,0,0,0,0,0,0,0,0,0,3.062,3.0543,3.0736,3.0718,3.0717,3.0812,3.0813,3.0815,3.0758,3.0754,3.075,3.0747,3.0825,3.0831,3.0838,3.0954,0,0,3.0858,3.0861,0,0,0,0,0,0,0,0,3.0616,3.0628,3.072,3.0719,3.0719,3.0771,3.0772,3.0861,3.0759,3.0742,3.0749,3.0745,3.0812,3.0819,3.0842,3.0957,3.0961,3.0858,3.0862,3.0865,3.0867,0,0,0,0,0,0,0,3.061,3.0624,3.0766,3.0721,3.0721,3.0706,3.0713,3.0789,3.0797,3.0743,3.074,3.0749,3.0811,3.0836,3.0843,3.0962,3.0858,3.0864,3.0868,3.0871,3.1172,3.1176,0,0,0,0,0,0,3.0606,3.062,3.0764,3.0768,3.0657,3.0712,3.0721,3.0758,3.0796,3.0799,3.0752,3.0746,3.0826,3.0836,3.0846,3.0981,3.0865,3.0872,3.0875,3.1168,3.1173,3.1178,0,0,0,0,0,0,3.0602,3.062,3.076,3.0693,3.071,3.072,3.0762,3.0762,3.0786,3.0803,3.0804,3.0776,3.0824,3.0837,3.0926,3.0983,3.0874,3.0881,3.1164,3.117,3.1176,3.1255,0,0,0,0,0,0,3.0597,3.0618,3.0663,3.0694,3.0713,3.0841,3.0766,3.0766,3.0798,3.0791,3.0826,3.0828,3.0822,3.0917,3.0933,3.0991,3.0886,3.1159,3.1166,3.1174,3.1248,3.1263,3.1277,0,0,0,0,0,3.059,3.0684,3.0666,3.0684,3.077,3.0844,3.0855,3.0846,3.0803,3.0847,3.0857,3.0827,3.0975,3.0927,3.0944,3.1005,3.1155,3.1164,3.1173,3.1241,3.126,3.1277,0,0,0,0,0,0,3.066,3.0687,3.0668,3.0775,3.0807,3.0834,3.089,3.0867,3.0913,3.0904,3.0891,3.0899,3.0993,3.1008,3.0953,3.1117,3.1058,3.1071,3.1104,3.1122,3.1136,3.113,3.0891,0,0,0,0,0,3.0687,3.0746,3.0767,3.0859,3.0876,3.088,3.0912,3.0902,3.0936,3.0949,3.0966,3.0999,3.1053,3.1089,3.1139,3.125,3.1255,3.13,3.1315,3.1327,3.1338,3.1394,3.1413,3.1207,3.1207,3.1207,0,0,3.0746,3.0768,3.0806,3.0873,3.0897,3.0957,3.0892,3.0959,3.1002,3.0959,3.1044,3.1058,3.1094,3.1194,3.1239,3.1209,3.1396,3.1338,3.1348,3.1352,3.1405,3.1425,3.1442,3.1214,3.1213,3.1212,0,0,3.0881,3.0905,3.0982,3.1007,3.1044,3.1046,3.1065,3.1095,3.1102,3.1187,3.1155,3.1206,3.13,3.1326,3.1351,3.1494,3.1467,3.1511,3.1587,3.1642,3.1658,3.1672,3.1721,3.1738,3.1522,3.1523,3.1523,0,3.0948,3.1037,3.1025,3.1093,3.1123,3.1086,3.1163,3.1188,3.124,3.1261,3.1227,3.1342,3.1364,3.1467,3.1502,3.1525,3.1544,3.1506,3.1657,3.1671,3.1684,3.173,3.1748,3.1528,3.1527,3.1526,3.1526,0,3.1116,3.1178,3.1236,3.1286,3.1322,3.1395,3.1393,3.1431,3.1418,3.1423,3.1508,3.1533,3.1586,3.1611,3.1599,3.1712,3.1692,3.1659,3.1598,3.1709,3.1751,3.1769,3.1535,3.1533,3.1531,3.153,0,0,3.1298,3.1339,3.136,3.1381,3.1418,3.1465,3.1535,3.1586,3.1618,3.1655,3.1711,3.179,3.1758,3.1787,3.1778,3.1826,3.1934,3.1786,3.1786,3.181,3.2057,3.208,3.2101,3.1917,3.192,3.1923,3.2053,0,3.1433,3.1555,3.1545,3.1659,3.1714,3.1679,3.174,3.1768,3.1775,3.1822,3.1829,3.1884,3.1839,3.1855,3.1902,3.1911,3.1983,3.1902,3.1967,3.197,3.1957,3.2124,3.215,3.2271,3.207,3.2073,3.2075,0,3.1607,3.1648,3.1767,3.1793,3.1816,3.1871,3.1915,3.1962,3.1993,3.1993,3.2025,3.2006,3.2075,3.2014,3.2108,3.2053,3.2079,3.2087,3.2092,3.2096,3.2027,3.213,3.231,3.2327,3.2101,3.2099,3.2097,0,3.1724,3.1809,3.1891,3.191,3.1943,3.1981,3.1997,3.2024,3.2055,3.2094,3.2113,3.2161,3.2186,3.2223,3.2217,3.2174,3.2311,3.2251,3.2312,3.2312,3.2341,3.2339,3.2526,3.2362,3.2362,3.2362,3.2361,0,3.1874,3.1948,3.1943,3.1993,3.2074,3.2062,3.2142,3.2153,3.2177,3.2227,3.2201,3.2249,3.2239,3.2287,3.2283,3.2359,3.2371,3.2373,3.237,3.2374,3.2373,3.2389,3.2379,3.2367,3.2366,3.2365,3.2364,0,3.2018,3.2018,3.2104,3.2128,3.2135,3.2193,3.2213,3.2259,3.2263,3.2327,3.2341,3.2346,3.24,3.2399,3.2461,3.2458,3.255,3.254,3.254,3.2536,3.2597,3.259,3.2798,3.2824,3.2646,3.2648,3.265,0,3.2113,3.2169,3.2197,3.2229,3.2246,3.2298,3.2328,3.2318,3.2351,3.2389,3.243,3.2482,3.2522,3.261,3.2619,3.2665,3.2654,3.2723,3.266,3.2661,3.2651,3.2647,3.2651,3.2735,3.2737,3.2739,3.274,0,3.228,3.2277,3.2322,3.2367,3.2403,3.2438,3.247,3.2497,3.249,3.2528,3.2583,3.2614,3.2676,3.2726,3.277,3.2785,3.2761,3.276,3.2776,3.2779,3.2775,3.2775,3.257,3.2755,3.2753,3.2752,3.2752,3.2751,3.2401,3.2447,3.2474,3.2524,3.2546,3.2576,3.262,3.2628,3.2673,3.2722,3.2713,3.2774,3.2801,3.2857,3.2876,3.2922,3.2897,3.2921,3.2927,3.2932,3.2937,3.277,3.293,3.293,3.293,3.2929,3.2929,0,3.2564,3.2579,3.2625,3.2669,3.2708,3.2682,3.2715,3.2749,3.2802,3.283,3.2869,3.293,3.2978,3.2991,3.3037,3.3071,3.3061,3.3083,3.3079,3.3082,3.2959,3.2939,3.309,3.309,3.309,3.309,3.309,3.309,3.2653,3.2729,3.2729,3.2815,3.2829,3.2887,3.2908,3.2934,3.2955,3.3025,3.3064,3.3072,3.3092,3.3139,3.3181,3.3183,3.32,3.3227,3.3224,3.3108,3.3092,3.3076,3.3057,3.3231,3.3231,3.3344,3.3345,3.3346]},{"header":{"parameterUnit":"m.s-1","parameterCategory":1,"la1":30.2991,"la2":30.254,"lo1":-89.0895,"lo2":-89.0444,"dy":0.0017,"dx":0.0017,"nx":28,"ny":28,"refTime":"2025-07-08T03:00:00:Z","depth":0,"parameterNumber":3,"parameterNumberName":"V-component_of_WINDS"},"data":[0,0,0,0,0,0,0,0,0,0,0,0,0,0,0,0,0,0,0,0,0,0,0,0,0,0,0,0,0,0,0,0,0,0,0,0,0,0,0,0,0,0,0,0,0,0,0,0,0,0,0,0,0,0,0,0,0,0,1.282,1.282,0,1.2848,1.2848,1.2849,1.2815,1.2814,1.2813,1.2811,1.284,1.2842,1.2844,0,0,0,0,0,0,0,0,0,0,0,0,0,1.2735,1.2737,1.282,1.282,1.282,1.2848,1.2848,1.2849,1.2815,1.2814,1.2812,1.2811,1.284,1.2842,1.2844,0,0,0,0,0,0,0,0,0,0,0,0,0,1.2768,1.2737,1.282,1.2807,1.2806,1.2848,1.2848,1.2849,1.2816,1.2814,1.2812,1.281,1.2839,1.2842,1.2845,1.29,0,0,1.2854,1.2855,0,0,0,0,0,0,0,0,1.2767,1.2772,1.2808,1.2808,1.2807,1.2826,1.2829,1.2866,1.2816,1.2812,1.2811,1.2809,1.2837,1.284,1.285,1.2902,1.2903,1.2854,1.2856,1.2857,1.2858,0,0,0,0,0,0,0,1.2764,1.277,1.2831,1.2809,1.2808,1.2799,1.2802,1.2836,1.2835,1.2812,1.281,1.2814,1.2836,1.2847,1.285,1.2903,1.2854,1.2856,1.2858,1.2859,1.3001,1.3003,0,0,0,0,0,0,1.2763,1.2768,1.283,1.2832,1.2782,1.2802,1.2805,1.2822,1.2834,1.2834,1.2815,1.2812,1.2843,1.2847,1.2851,1.2916,1.2857,1.286,1.2861,1.2999,1.3002,1.3004,0,0,0,0,0,0,1.2762,1.2769,1.2829,1.2799,1.2806,1.2806,1.2825,1.2823,1.2834,1.2837,1.2836,1.2826,1.2841,1.2847,1.2888,1.2917,1.2861,1.2864,1.2997,1.3,1.3003,1.3048,0,0,0,0,0,0,1.276,1.2769,1.2791,1.28,1.2808,1.2866,1.2826,1.2825,1.2839,1.2835,1.2847,1.2847,1.284,1.2884,1.2891,1.292,1.2866,1.2994,1.2998,1.3002,1.3044,1.3052,1.3059,0,0,0,0,0,1.2757,1.2802,1.2792,1.2799,1.2835,1.2868,1.2872,1.2864,1.2842,1.2863,1.2864,1.2847,1.2912,1.2888,1.2896,1.2926,1.2992,1.2997,1.3001,1.304,1.3051,1.3059,0,0,0,0,0,0,1.2797,1.2804,1.2792,1.2842,1.2855,1.2862,1.2889,1.2875,1.2894,1.289,1.2878,1.2881,1.2925,1.2929,1.2903,1.298,1.2949,1.2955,1.2976,1.2985,1.2993,1.2991,1.2868,0,0,0,0,0,1.2811,1.2837,1.2842,1.2886,1.2893,1.289,1.2904,1.2896,1.2908,1.2914,1.2918,1.2931,1.2954,1.297,1.2991,1.3044,1.3046,1.3068,1.3076,1.3082,1.3088,1.3115,1.3125,1.3019,1.3019,1.3019,0,0,1.2842,1.2849,1.2866,1.2894,1.2903,1.293,1.2895,1.2925,1.2945,1.2918,1.2957,1.2961,1.2974,1.3021,1.3042,1.3026,1.3118,1.3088,1.3093,1.3095,1.3121,1.3131,1.314,1.3022,1.3021,1.3021,0,0,1.2912,1.292,1.2957,1.2966,1.2979,1.2977,1.2986,1.2995,1.2996,1.3035,1.3016,1.3038,1.3079,1.3089,1.3099,1.3171,1.3155,1.3178,1.3219,1.3245,1.3254,1.3261,1.3286,1.3295,1.3184,1.3184,1.3184,0,1.2948,1.2988,1.2978,1.3009,1.3021,1.2998,1.3035,1.3044,1.3064,1.3073,1.3055,1.3105,1.3112,1.3161,1.3178,1.3187,1.3196,1.3177,1.3253,1.3261,1.3267,1.3291,1.3301,1.3187,1.3186,1.3186,1.3186,0,1.3032,1.306,1.3088,1.3108,1.3123,1.3158,1.3151,1.3168,1.3158,1.3158,1.3197,1.3205,1.3227,1.3238,1.3229,1.3285,1.3274,1.3255,1.3223,1.328,1.3303,1.3312,1.319,1.3189,1.3189,1.3188,0,0,1.3129,1.3141,1.3152,1.316,1.3172,1.3193,1.3226,1.3247,1.3262,1.3276,1.3302,1.3337,1.3318,1.333,1.3322,1.3345,1.3401,1.3323,1.3323,1.3337,1.3462,1.3477,1.3488,1.339,1.3391,1.3393,1.3461,0,1.3199,1.3256,1.3246,1.3301,1.3326,1.3303,1.3331,1.3342,1.3341,1.3362,1.3361,1.3386,1.336,1.3367,1.3389,1.3389,1.3426,1.3384,1.3414,1.3415,1.3412,1.3499,1.3515,1.3579,1.3469,1.3471,1.3472,0,1.3288,1.3305,1.3362,1.3369,1.338,1.3405,1.3424,1.3444,1.3455,1.3453,1.3465,1.3452,1.3484,1.3451,1.3494,1.3466,1.3477,1.3479,1.3481,1.3484,1.3448,1.3505,1.36,1.3609,1.3486,1.3485,1.3484,0,1.3353,1.339,1.3429,1.3436,1.3446,1.3464,1.3469,1.3478,1.3491,1.3506,1.3515,1.3534,1.3545,1.356,1.3552,1.3529,1.3596,1.3563,1.3595,1.3595,1.3611,1.361,1.3709,1.3618,1.3618,1.3618,1.3617,0,1.3433,1.3469,1.3458,1.3482,1.3521,1.3509,1.3548,1.355,1.3558,1.3581,1.3562,1.3584,1.3572,1.3593,1.3587,1.3624,1.3629,1.3628,1.3626,1.363,1.363,1.3637,1.3633,1.362,1.362,1.3619,1.3619,0,1.3513,1.3507,1.3548,1.3553,1.3555,1.3583,1.3587,1.3609,1.3606,1.3636,1.3642,1.3639,1.3662,1.3656,1.3682,1.3677,1.3723,1.3715,1.372,1.3718,1.3751,1.3748,1.3859,1.3872,1.3772,1.3773,1.3774,0,1.3564,1.3591,1.3598,1.3612,1.3618,1.3642,1.3655,1.3643,1.3658,1.3671,1.3691,1.3713,1.373,1.3769,1.3768,1.3788,1.378,1.3818,1.3783,1.3786,1.3781,1.3779,1.3782,1.3825,1.3826,1.3827,1.3828,0,1.3655,1.3651,1.367,1.3689,1.3705,1.3719,1.3731,1.3743,1.3733,1.375,1.3774,1.3787,1.3813,1.3835,1.3852,1.3856,1.384,1.3838,1.3847,1.3851,1.3853,1.3852,1.3739,1.3836,1.3835,1.3835,1.3834,1.3834,1.3722,1.3745,1.3753,1.3775,1.3783,1.3794,1.3815,1.3815,1.3834,1.3855,1.3846,1.3874,1.3882,1.3904,1.391,1.3931,1.3917,1.3929,1.3932,1.3936,1.394,1.3849,1.3934,1.3934,1.3933,1.3933,1.3933,0,1.3812,1.3816,1.3837,1.3854,1.3871,1.3854,1.3866,1.3882,1.3906,1.3915,1.3932,1.3959,1.398,1.398,1.3999,1.4016,1.4009,1.4021,1.402,1.4021,1.3951,1.3942,1.4026,1.4026,1.4026,1.4026,1.4026,1.4026,1.3861,1.3898,1.3895,1.3935,1.3938,1.3965,1.3973,1.3983,1.3991,1.4021,1.4039,1.4038,1.4044,1.4063,1.4081,1.408,1.4088,1.4104,1.41,1.4035,1.4026,1.4017,1.4009,1.4105,1.4105,1.4168,1.4169,1.4169]}]]